Harrison Township, MI

10:36 PM EDT on September 29, 2016 (GMT -0400)
Selfridge Angb

Weather History for KMTC - October, 2011

Change the Weather History Date:

Monday, October 31, 2011

  Actual Average Record
Temperature  
Mean Temperature 48 °F -  
Max Temperature 52 °F 56 °F 71 °F (1950)
Min Temperature 44 °F 39 °F 20 °F (1988)
Degree Days  
Heating Degree Days 16    
Moisture  
Dew Point 40 °F    
Average Humidity 77    
Maximum Humidity 87    
Minimum Humidity 62    
Precipitation  
Precipitation 0.00 in - - ()
Sea Level Pressure  
Sea Level Pressure 30.12 in    
Wind  
Wind Speed 9 mph (South)    
Max Wind Speed 15 mph    
Max Gust Speed -    
Visibility 11 miles    
Events Rain    
Averages and records for this station are not official NWS values.
T = Trace of Precipitation, MM = Missing Value Source: NWS Daily Summary

Daily Weather History Graph

Daily Weather History Graph

Search for Another Location

Airport or City:

Trip Planner

Search our weather history database for the weather conditions in past years. The results will help you decide how hot, cold, wet, or windy it might be!

Date:

Astronomy

Oct. 31, 2011 Rise Set
Actual Time 8:03 AM EDT 6:25 PM EDT
Civil Twilight 7:34 AM EDT 6:55 PM EDT
Nautical Twilight 7:01 AM EDT 7:28 PM EDT
Astronomical Twilight 6:28 AM EDT 8:00 PM EDT
Moon 1:12 PM EDT (10/31) 10:58 PM EDT (10/31)
Length of Visible Light 11h 20m
Length of Day
10h 22m
Waxing Crescent, 29% of the Moon is Illuminated
Oct 31
Waxing Crescent
Nov 2
First Quarter
Nov 10
Full
Nov 18
Last Quarter
Nov 25
New

Hourly Weather History & Observations

Time (EDT) Temp. Windchill Dew Point Humidity Pressure Visibility Wind Dir Wind Speed Gust Speed Precip Events Conditions
12:55 AM 47.1 °F - 39.0 °F 73% 30.16 in 10.0 mi SSW 5.8 mph - N/A   Partly Cloudy
1:03 AM 46.4 °F 41.9 °F 39.2 °F 76% 30.16 in 10.0 mi South 9.2 mph - N/A Rain Light Rain
1:55 AM 45.5 °F 39.9 °F 39.7 °F 80% 30.15 in 10.0 mi South 11.5 mph - 0.00 in Rain Light Rain
2:04 AM 44.6 °F 38.8 °F 39.2 °F 81% 30.16 in 10.0 mi South 11.5 mph - N/A   Clear
2:55 AM 45.9 °F 41.2 °F 40.6 °F 82% 30.13 in 10.0 mi SSE 9.2 mph - 0.00 in   Overcast
3:55 AM 46.6 °F - 40.5 °F 79% 30.12 in 10.0 mi South 8.1 mph - N/A   Mostly Cloudy
4:55 AM 48.2 °F - 39.2 °F 71% 30.11 in 12.0 mi SSE 10.4 mph - N/A   Mostly Cloudy
5:55 AM 46.4 °F 41.1 °F 41.0 °F 81% 30.10 in 12.0 mi SSE 11.5 mph - N/A   Overcast
6:55 AM 46.4 °F 41.9 °F 39.2 °F 76% 30.09 in 12.0 mi SSE 9.2 mph - N/A   Overcast
7:55 AM 46.4 °F 41.1 °F 39.2 °F 76% 30.09 in 12.0 mi SSE 11.5 mph - N/A   Overcast
8:55 AM 48.2 °F - 39.2 °F 71% 30.09 in 12.0 mi SSE 11.5 mph - N/A   Overcast
9:55 AM 48.2 °F - 41.0 °F 76% 30.09 in 12.0 mi SE 9.2 mph - N/A   Overcast
10:55 AM 51.8 °F - 42.8 °F 71% 30.09 in 12.0 mi South 6.9 mph - N/A   Overcast
11:55 AM 53.6 °F - 42.8 °F 67% 30.08 in 12.0 mi South 13.8 mph - N/A   Mostly Cloudy
12:55 PM 51.8 °F - 41.0 °F 67% 30.08 in 12.0 mi South 15.0 mph - N/A   Overcast
1:55 PM 51.8 °F - 39.2 °F 62% 30.07 in 12.0 mi South 12.7 mph - N/A   Mostly Cloudy
2:55 PM 48.2 °F - 39.2 °F 71% 30.07 in 10.0 mi SSW 11.5 mph - N/A   Overcast
3:55 PM 48.2 °F - 39.2 °F 71% 30.08 in 10.0 mi South 9.2 mph - N/A   Overcast
4:55 PM 48.2 °F - 41.0 °F 76% 30.09 in 10.0 mi South 9.2 mph - N/A   Overcast
5:55 PM 46.4 °F 42.9 °F 41.0 °F 81% 30.10 in 12.0 mi South 6.9 mph - N/A   Mostly Cloudy
6:55 PM 46.4 °F 43.5 °F 41.0 °F 81% 30.12 in 12.0 mi South 5.8 mph - N/A   Mostly Cloudy
7:55 PM 44.6 °F 41.4 °F 41.0 °F 87% 30.14 in 12.0 mi South 5.8 mph - N/A   Mostly Cloudy
8:55 PM 46.4 °F 44.3 °F 41.0 °F 81% 30.15 in 12.0 mi South 4.6 mph - N/A   Mostly Cloudy
9:55 PM 46.4 °F 44.3 °F 41.0 °F 81% 30.17 in 12.0 mi SSW 4.6 mph - N/A   Mostly Cloudy
10:55 PM 44.6 °F - 41.0 °F 87% 30.18 in 12.0 mi Calm Calm - N/A   Mostly Cloudy
11:55 PM 45.5 °F - 41.4 °F 85% 30.18 in 10.0 mi Calm Calm - N/A   Overcast